Weather History for Moorhead, MN

Change the Weather History Date:

Monday, March 25, 2013

  Actual Average (KFAR) Record (KFAR)
Temperature  
Mean Temperature 17 °F 32 °F  
Max Temperature 26 °F 41 °F 71 °F (1925)
Min Temperature 8 °F 24 °F -11 °F (1894)
Degree Days  
Heating Degree Days 48 33  
Month to date heating degree days 969  
Since 1 July heating degree days 7647  
Cooling Degree Days 0 0  
Month to date cooling degree days 0  
Year to date cooling degree days 0  
Moisture  
Dew Point 20 °F    
Average Humidity 92    
Maximum Humidity 100    
Minimum Humidity 74    
Precipitation  
Precipitation 0.00 in 0.04 in 0.98 in (1927)
Month to date precipitation 1.04  
Year to date precipitation 2.35  
Snow  
Snow 0.00 in 0.20 in 10.10 in (1927)
Month to date snowfall 8.0  
Since 1 July snowfall 46.0  
Snow Depth -    
Sea Level Pressure  
Sea Level Pressure 30.29 in    
Wind  
Wind Speed 14 mph (North)    
Max Wind Speed 18 mph    
Max Gust Speed 20 mph    
Visibility 10 miles    
Events Snow    
T = Trace of Precipitation, MM = Missing Value Source: NWS Daily Summary

Daily Weather History Graph

Daily Weather History Graph

Search for Another Location

Airport:

Trip Planner

Search our weather history database for the weather conditions in past years. The results will help you decide how hot, cold, wet, or windy it might be!

Date:

Astronomy

Mar. 25, 2013 Rise Set
Actual Time 7:19 AM CDT 7:46 PM CDT
Civil Twilight 6:48 AM CDT 8:17 PM CDT
Nautical Twilight 6:12 AM CDT 8:53 PM CDT
Astronomical Twilight 5:35 AM CDT 9:30 PM CDT
Moon 6:16 PM CDT (3/25) 6:08 AM CDT (3/25)
Length of Visible Light 13h 28m
Length of Day
12h 27m
Waxing Gibbous, 96% of the Moon is Illuminated
Mar 25
Waxing Gibbous
Mar 27
Full
Apr 2
Last Quarter
Apr 10
New
Apr 18
First Quarter

Hourly Weather History & Observations

Time (CDT) Temp. Windchill Dew Point Humidity Pressure Visibility Wind Dir Wind Speed Gust Speed Precip Events Conditions
12:15 AM 24.8 °F 11.9 °F 23.0 °F 93% 30.21 in 10.0 mi North 16.1 mph - N/A Snow Light Snow
12:34 AM 24.8 °F 12.4 °F 21.2 °F 86% 30.21 in 10.0 mi North 15.0 mph - N/A   Overcast
12:55 AM 23.0 °F 10.1 °F 21.2 °F 93% 30.22 in 10.0 mi North 15.0 mph - N/A   Overcast
1:15 AM 23.0 °F 10.6 °F 21.2 °F 93% 30.22 in 10.0 mi North 13.8 mph - N/A Snow Light Snow
1:35 AM 23.0 °F 11.1 °F 21.2 °F 93% 30.22 in 10.0 mi North 12.7 mph - N/A Snow Light Snow
1:55 AM 23.0 °F 11.1 °F 21.2 °F 93% 30.22 in 10.0 mi North 12.7 mph - N/A Snow Light Snow
2:15 AM 23.0 °F 11.1 °F 21.2 °F 93% 30.22 in 10.0 mi North 12.7 mph - N/A Snow Light Snow
2:35 AM 23.0 °F 10.6 °F 21.2 °F 93% 30.22 in 10.0 mi North 13.8 mph - N/A   Overcast
2:55 AM 21.2 °F 8.3 °F 21.2 °F 100% 30.22 in 10.0 mi North 13.8 mph - N/A   Overcast
3:15 AM 21.2 °F 7.8 °F 21.2 °F 100% 30.22 in 10.0 mi North 15.0 mph - N/A Snow Light Snow
3:35 AM 21.2 °F 8.3 °F 21.2 °F 100% 30.22 in 10.0 mi North 13.8 mph - N/A Snow Light Snow
3:55 AM 21.2 °F 8.3 °F 21.2 °F 100% 30.22 in 10.0 mi North 13.8 mph - N/A   Overcast
4:14 AM 21.2 °F 8.3 °F 21.2 °F 100% 30.22 in 10.0 mi North 13.8 mph - N/A   Overcast
4:35 AM 21.2 °F 7.8 °F 21.2 °F 100% 30.22 in 10.0 mi North 15.0 mph - N/A   Overcast
4:55 AM 21.2 °F 8.9 °F 21.2 °F 100% 30.23 in 10.0 mi North 12.7 mph - N/A Snow Light Snow
5:14 AM 21.2 °F 8.3 °F 21.2 °F 100% 30.23 in 10.0 mi North 13.8 mph - N/A Snow Light Snow
5:35 AM 21.2 °F 8.3 °F 21.2 °F 100% 30.23 in 10.0 mi North 13.8 mph - N/A   Overcast
5:54 AM 21.2 °F 8.9 °F 21.2 °F 100% 30.23 in 10.0 mi North 12.7 mph - N/A   Overcast
6:15 AM 21.2 °F 8.3 °F 21.2 °F 100% 30.24 in 10.0 mi NNW 13.8 mph - N/A   Overcast
6:35 AM 21.2 °F 10.9 °F 21.2 °F 100% 30.25 in 10.0 mi North 9.2 mph - N/A   Overcast
6:54 AM 21.2 °F 7.8 °F 21.2 °F 100% 30.26 in 10.0 mi North 15.0 mph - N/A Snow Light Snow
7:15 AM 21.2 °F 8.3 °F 21.2 °F 100% 30.26 in 10.0 mi North 13.8 mph - N/A Snow Light Snow
7:34 AM 21.2 °F 7.8 °F 21.2 °F 100% 30.27 in 10.0 mi North 15.0 mph - N/A Snow Light Snow
7:55 AM 21.2 °F 8.3 °F 21.2 °F 100% 30.27 in 10.0 mi North 13.8 mph - N/A Snow Light Snow
8:14 AM 21.2 °F 8.3 °F 21.2 °F 100% 30.28 in 10.0 mi North 13.8 mph - N/A Snow Light Snow
8:34 AM 21.2 °F 8.9 °F 21.2 °F 100% 30.28 in 10.0 mi North 12.7 mph - N/A   Overcast
8:55 AM 21.2 °F 8.3 °F 21.2 °F 100% 30.29 in 10.0 mi North 13.8 mph - N/A   Overcast
9:15 AM 21.2 °F 9.5 °F 21.2 °F 100% 30.29 in 10.0 mi North 11.5 mph - N/A   Overcast
9:34 AM 21.2 °F 7.8 °F 21.2 °F 100% 30.29 in 10.0 mi North 15.0 mph - N/A   Overcast
9:55 AM 21.2 °F 7.8 °F 21.2 °F 100% 30.30 in 10.0 mi North 15.0 mph - N/A   Overcast
10:14 AM 23.0 °F 9.6 °F 21.2 °F 93% 30.30 in 10.0 mi North 16.1 mph - N/A   Overcast
10:35 AM 23.0 °F 9.6 °F 21.2 °F 93% 30.31 in 10.0 mi North 16.1 mph - N/A   Overcast
10:55 AM 23.0 °F 10.1 °F 21.2 °F 93% 30.31 in 10.0 mi North 15.0 mph - N/A   Overcast
11:14 AM 23.0 °F 9.6 °F 21.2 °F 93% 30.31 in 10.0 mi North 16.1 mph - N/A   Overcast
11:35 AM 24.8 °F 12.4 °F 21.2 °F 86% 30.31 in 10.0 mi North 15.0 mph - N/A   Overcast
11:55 AM 24.8 °F 12.4 °F 21.2 °F 86% 30.31 in 10.0 mi North 15.0 mph - N/A   Overcast
12:14 PM 24.8 °F 12.4 °F 21.2 °F 86% 30.31 in 10.0 mi North 15.0 mph - N/A   Scattered Clouds
12:35 PM 24.8 °F 12.9 °F 21.2 °F 86% 30.31 in 10.0 mi North 13.8 mph - N/A   Clear
12:54 PM 24.8 °F 11.9 °F 21.2 °F 86% 30.31 in 10.0 mi North 16.1 mph - N/A   Clear
1:15 PM 24.8 °F 12.4 °F 23.0 °F 93% 30.31 in 10.0 mi North 15.0 mph - N/A   Scattered Clouds
1:35 PM 24.8 °F 11.9 °F 23.0 °F 93% 30.31 in 10.0 mi NNW 16.1 mph - N/A   Scattered Clouds
1:54 PM 24.8 °F 12.4 °F 21.2 °F 86% 30.31 in 10.0 mi NNW 15.0 mph 19.6 mph N/A   Scattered Clouds
2:15 PM 26.6 °F 15.2 °F 23.0 °F 86% 30.31 in 10.0 mi North 13.8 mph - N/A   Scattered Clouds
2:35 PM 26.6 °F 13.4 °F 23.0 °F 86% 30.30 in 10.0 mi North 18.4 mph - N/A   Clear
2:54 PM 26.6 °F 14.7 °F 23.0 °F 86% 30.30 in 10.0 mi North 15.0 mph - N/A   Clear
3:15 PM 26.6 °F 14.3 °F 21.2 °F 80% 30.30 in 10.0 mi North 16.1 mph - N/A   Clear
3:35 PM 26.6 °F 13.8 °F 23.0 °F 86% 30.30 in 10.0 mi North 17.3 mph - N/A   Scattered Clouds
3:54 PM 26.6 °F 13.8 °F 23.0 °F 86% 30.30 in 10.0 mi North 17.3 mph - N/A   Clear
4:15 PM 26.6 °F 13.4 °F 21.2 °F 80% 30.30 in 10.0 mi North 18.4 mph - N/A   Clear
4:34 PM 26.6 °F 13.8 °F 21.2 °F 80% 30.30 in 10.0 mi North 17.3 mph - N/A   Clear
4:55 PM 26.6 °F 14.7 °F 21.2 °F 80% 30.31 in 10.0 mi North 15.0 mph - N/A   Mostly Cloudy
5:15 PM 26.6 °F 14.3 °F 19.4 °F 74% 30.31 in 10.0 mi North 16.1 mph - N/A   Overcast
5:34 PM 24.8 °F 13.4 °F 19.4 °F 80% 30.31 in 10.0 mi North 12.7 mph - N/A   Mostly Cloudy
5:55 PM 24.8 °F 12.4 °F 19.4 °F 80% 30.31 in 10.0 mi North 15.0 mph - N/A   Clear
6:14 PM 24.8 °F 12.4 °F 19.4 °F 80% 30.31 in 10.0 mi NNW 15.0 mph - N/A   Clear
6:35 PM 24.8 °F 11.9 °F 19.4 °F 80% 30.32 in 10.0 mi NNW 16.1 mph - N/A   Clear
6:55 PM 23.0 °F 10.6 °F 19.4 °F 86% 30.32 in 10.0 mi NNW 13.8 mph - N/A   Clear
7:14 PM 21.2 °F 9.5 °F 19.4 °F 93% 30.33 in 10.0 mi NNW 11.5 mph - N/A   Clear
7:35 PM 21.2 °F 9.5 °F 17.6 °F 86% 30.33 in 10.0 mi NNW 11.5 mph - N/A   Clear
7:55 PM 19.4 °F 7.9 °F 17.6 °F 93% 30.34 in 10.0 mi NNW 10.4 mph - N/A   Clear
8:14 PM 19.4 °F 8.6 °F 15.8 °F 86% 30.34 in 10.0 mi NNW 9.2 mph - N/A   Clear
8:35 PM 17.6 °F 7.3 °F 15.8 °F 93% 30.34 in 10.0 mi NNW 8.1 mph - N/A   Clear
8:54 PM 17.6 °F 7.3 °F 14.0 °F 86% 30.34 in 10.0 mi NNW 8.1 mph - N/A   Clear
9:15 PM 15.8 °F 6.1 °F 12.2 °F 86% 30.35 in 10.0 mi NNW 6.9 mph - N/A   Clear
9:35 PM 15.8 °F 7.2 °F 12.2 °F 86% 30.35 in 10.0 mi NNW 5.8 mph - N/A   Clear
9:54 PM 14.0 °F 5.1 °F 12.2 °F 93% 30.35 in 10.0 mi NNW 5.8 mph - N/A   Clear
10:15 PM 12.2 °F 2.9 °F 12.2 °F 100% 30.35 in 10.0 mi NNW 5.8 mph - N/A   Clear
10:35 PM 12.2 °F 1.7 °F 10.4 °F 92% 30.35 in 10.0 mi NNW 6.9 mph - N/A   Clear
10:54 PM 10.4 °F -0.4 °F 10.4 °F 100% 30.35 in 10.0 mi NW 6.9 mph - N/A   Clear
11:15 PM 8.6 °F -2.6 °F 6.8 °F 92% 30.35 in 10.0 mi NW 6.9 mph - N/A   Clear
11:35 PM 10.4 °F 0.8 °F 8.6 °F 92% 30.34 in 10.0 mi NNW 5.8 mph - N/A   Clear
11:54 PM 8.6 °F -1.3 °F 8.6 °F 100% 30.35 in 10.0 mi NNW 5.8 mph - N/A   Clear